Weather Roundup
Issued by NWS

Home | Current Version | Previous Version | Text Only | Print | Product List | Glossary On
Versions: 1 2 3 4 5 6 7 8 9 10 11 12 13 14 15 16 17 18 19 20 21 22 23 24 25 26 27 28 29 30 31 32 33 34 35 36 37 38 39 40 41 42 43 44 45 46 47 48 49 50
000
NZUS93 KARX 011059
HRRWXR

CURRENT HOURLY OBSERVATIONS ACROSS
MUCH OF THE UPPER MISSISSIPPI VALLEY
NATIONAL WEATHER SERVICE LA CROSSE WI
600 AM CDT SAT AUG 01 2015


...SOUTHEAST MINNESOTA...


CITY           SKY/WX    TMP DP  RH WIND       PRES   REMARKS
ROCHESTER      CLEAR     59  56  89 S5        30.01S
ROCHESTER/MAYO FAIR      63  60  90 S9        29.99F
WINONA         MOCLDY    63  59  88 CALM      29.97F
AUSTIN         CLEAR     61  57  88 CALM      29.99F
ALBERT LEA     CLEAR     66  59  77 SW8       29.99F
DODGE CENTER   CLEAR     59  55  88 SW5       29.99S
PRESTON        CLEAR     60  56  86 S3        30.01F
OWATONNA       CLEAR     61  55  82 SW6       29.98F
FARIBAULT      CLEAR     63  59  88 CALM      29.97F
$$

...ELSEWHERE IN MINNESOTA...


CITY           SKY/WX    TMP DP  RH WIND       PRES   REMARKS
MINNEAPOLIS    PTCLDY    67  59  75 CALM      29.96S
INTNL FALLS    CLEAR     53  49  86 W5        29.90S
DULUTH         CLEAR     54  49  83 W7        29.94S
RED WING       PTCLDY    61  57  88 CALM      29.96S
REDWOOD FALLS  CLEAR     61  59  93 W8        29.98S
MANKATO        CLEAR     63  55  77 W7        29.98S
WORTHINGTON    CLEAR     64  59  82 SW8       30.01F
FAIRMONT       CLEAR     64  55  72 W6        29.99F
$$

...SOUTHWEST WISCONSIN...


CITY           SKY/WX    TMP DP  RH WIND       PRES   REMARKS
LA CROSSE      MOCLDY    64  59  83 S5        29.97F
PRAIRIE DU CHI MOCLDY    60  56  88 CALM      29.99F
BOSCOBEL       CLOUDY    60  58  92 CALM      30.00R
LONE ROCK      NOT AVBL
PLATTEVILLE    PTCLDY    60  58  94 SW3       30.01S
FORT MC COY    PTCLDY    51  49  93 E3        29.99S
VIROQUA        PTSUNNY   60  57  89 W3        30.00S
WIS DELLS      CLEAR     57  52  82 CALM      29.98R
$$

...ELSEWHERE IN WISCONSIN...


CITY           SKY/WX    TMP DP  RH WIND       PRES   REMARKS
MILWAUKEE      CLEAR     66  51  58 W7        29.96S
MADISON        PTCLDY    63  54  72 VRB3      29.97S
GREEN BAY      CLEAR     58  53  84 W8        29.92S
EAU CLAIRE     NOT AVBL
BLACK RVR FLS  PTSUNNY   52  52 100 CALM      29.97S
MEDFORD        CLEAR     53  50  89 CALM      29.96S
WAUSAU         CLEAR     58  51  78 W8        29.94S
WIS RAPIDS     MOCLDY    58  51  78 NW6       29.97S
MARSHFIELD     CLOUDY    57  50  77 W6        29.96F
RICE LAKE      MOCLDY    52  50  93 CALM      29.98F
$$

...NORTHEAST IOWA...


CITY           SKY/WX    TMP DP  RH WIND       PRES   REMARKS
DECORAH        CLOUDY    61  59  94 CALM      30.01R
MASON CITY     CLEAR     68  61  78 W12       30.01F
CHARLES CITY   CLEAR     61  59  94 S5        30.01F
OELWEIN        CLEAR     57  57 100 CALM      30.02
$$

...ELSEWHERE IN IOWA...


CITY           SKY/WX    TMP DP  RH WIND       PRES   REMARKS
DES MOINES     PTCLDY    69  64  84 CALM      30.02F
IOWA CITY      CLEAR     61  58  90 CALM      30.03F
FORT DODGE     CLEAR     63  57  82 CALM      30.03S
$$

...NORTHERN ILLINOIS...


CITY           SKY/WX    TMP DP  RH WIND       PRES   REMARKS
CHICAGO-OHARE  CLEAR     64  53  67 W8        29.98S
CHICAGO-MIDWAY PTCLDY    67  52  58 W6        29.99R
MOLINE         CLEAR     59  55  87 SW3       30.02S
ROCKFORD       CLEAR     57  53  86 S5        30.02R
PEORIA         CLEAR     65  58  78 CALM      30.03S
$$

NOTE: "FAIR" INDICATES FEW OR NO CLOUDS BELOW 12,000 FEET WITH NO
SIGNIFICANT WEATHER AND/OR OBSTRUCTIONS TO VISIBILITY. WIND
SPEEDS ARE IN MILES-PER-HOUR.



USA.gov is the U.S. government's official web portal to all federal, state and local government web resources and services.